Tracking 18840 objects as of 17-November-2017
HD Live streaming from Space Station
objects crossing your sky now

FENGYUN 1C DEB

Track FENGYUN 1C DEB now!
10-day predictions


NORAD ID: 29811
Int'l Code: 1999-025DD
Perigee: 768.9 km
Apogee: 879.7 km
Inclination: 99.0 °
Period: 101.2 minutes
Semi major axis: 7195 km
RCS: 0.0186 m2 (small)
Launch date: May 10, 1999
Source: People's Republic of China (PRC)
Launch site: Taiyaun Space Center, China (TSC)

Note: This is SATELLITE DEBRIS
aabbcc
Your satellite tracking list
Your tracking list is empty




NASA's NSSDC Master Catalog

Two Line Element Set (TLE):
1 29811U 99025DD  17320.71955059 +.00002064 +00000-0 +91894-3 0  9996
2 29811 099.0241 026.6726 0077008 123.2908 237.5675 14.22420134558101
Source of the keplerian elements: AFSPC